Regional Weather Roundup
Issued by NWS

Home | Current Version | Previous Version | Graphics & Text | Print | Product List | Glossary On
Versions: 1 2 3 4 5 6 7 8 9 10 11 12 13 14 15 16 17 18 19 20 21 22 23 24 25 26 27 28 29 30 31 32 33 34 35 36 37 38 39 40 41 42 43 44 45 46 47 48 49 50
000
ASUS44 KMEG 202210
RWRTN
TENNESSEE HOURLY STATE WEATHER ROUNDUP
NATIONAL WEATHER SERVICE MEMPHIS TN
500 PM CDT MON APR 20 2015

TNZ002-004-019-021-049-052-054-088>092-202300-
WEST TENNESSEE

CITY           SKY/WX    TMP DP  RH WIND       PRES   REMARKS
MEMPHIS INTL   MOSUNNY   65  38  36 W15G22    29.84R
NWS MEMPHIS      N/A     65 N/A N/A MISG        N/A
JACKSON        MOSUNNY   63  39  41 W10G20    29.81S
DYERSBURG      PTSUNNY   64  34  32 W8G23     29.81S
UNION CITY     PTSUNNY   61  32  33 W9        29.78R
PARIS            N/A     59  39  47 W7        29.78S
LEXINGTON      MOSUNNY   63  37  39 W12       29.79S
SAVANNAH       MOSUNNY   64  32  29 W13       29.81R
$$

TNZ008-025-027-028-033-062-065-066-202300-
NORTH MIDDLE TENNESSEE

CITY           SKY/WX    TMP DP  RH WIND       PRES   REMARKS
NASHVILLE      PTSUNNY   62  48  60 W12G17    29.76S
CLARKSVILLE    MOSUNNY   61  38  42 NW14G26   29.75R
SMYRNA         PTSUNNY   60  51  72 W10       29.78R
COOKEVILLE     PTSUNNY   57  54  88 NW8       29.75R
CROSSVILLE     CLOUDY    62  45  53 W12G24    29.72S
$$

TNZ061-075-076-078-094-096-097-202300-
SOUTH MIDDLE TENNESSEE

CITY           SKY/WX    TMP DP  RH WIND       PRES   REMARKS
FAYETTEVILLE   MOSUNNY   61  46  59 W8        29.77R
TULLAHOMA      PTSUNNY   61  46  59 W8        29.77R
WINCHESTER     PTSUNNY   64  46  52 W10       29.76R
MCMINNVILLE    CLOUDY    57  52  82 W7        29.76R
COLUMBIA       MOSUNNY   63  32  31 VRB6      29.77S
SHELBYVILLE    PTSUNNY   63  48  59 W21       29.78R
$$

TNZ017-018-042-046-047-202300-
NORTHEAST TENNESSEE

CITY           SKY/WX    TMP DP  RH WIND       PRES   REMARKS
TRI CITIES     PTSUNNY   70  50  49 W16G26    29.62R
ELIZABETHTON   PTCLDY    70  50  49 W14       29.62R
$$

TNZ012-013-036-069-073-074-202300-
CENTRAL EAST TENNESSEE

CITY           SKY/WX    TMP DP  RH WIND       PRES   REMARKS
KNOXVILLE      PTSUNNY   68  46  45 W18G28    29.66R
OAK RIDGE      PTSUNNY   67  48  50 W13G23    29.69R
GATLINBURG     PTCLDY    72  45  37 W15       29.64S
MORRISTOWN     CLEAR     70  46  43 W23       29.65S
$$

TNZ083-085-099-202300-
SOUTHEAST TENNESSEE

CITY           SKY/WX    TMP DP  RH WIND       PRES   REMARKS
CHATTANOOGA    PTSUNNY   69  46  43 SW16G23   29.73R
$$

SKY/WX REPORTED AS FAIR MEANS FEW OR NO CLOUDS BELOW
12 THOUSAND FEET.



USA.gov is the U.S. government's official web portal to all federal, state and local government web resources and services.